User: anonymous   Login
Location: Newark
(55.7083°N, 13.1992°E)
Time: 04:34:04
(UTC+00:00)
Language:

Explorer 11/Cluster Stage 4 - Orbit

View from above orbital plane
View from above orbital plane
View from above satellite
View from above satellite

Ground track
Ground track

The orbit data is extracted from the following two-line orbital elements,

1   107U 61013A   20054.53725358 +.00000298 +00000-0 +20656-4 0  9990
2   107 028.7869 110.4397 0547151 127.7795 237.3623 14.08901537950004
Epoch (UTC): 23 February 2020 12:53:38
Eccentricity: 0.0547151
inclination: 28.7869°
perigee height: 467 km
apogee height: 1259 km
right ascension of ascending node: 110.4397°
argument of perigee: 127.7795°
revolutions per day: 14.08901537
mean anomaly at epoch: 237.3623°
orbit number at epoch: 95000

The dashed part of the orbit path shows where the satellite is in the earth's shadow,  

DLR